[[{"header":{"parameterUnit":"m.s-1","parameterCategory":1,"la1":30.2992,"la2":30.254,"lo1":-89.0895,"lo2":-89.0443,"dy":0.0025,"dx":0.0025,"nx":19,"ny":19,"refTime":"2026-03-23T09:00:00:Z","depth":0,"parameterNumber":2,"parameterNumberName":"U-component_of_WINDS"},"data":[0,0,0,-2.2421,-2.2423,-2.2496,-2.2496,-2.2603,-2.2604,0,0,0,0,0,0,0,0,0,0,0,-2.2408,-2.2409,-2.2421,-2.2423,-2.2496,-2.2496,-2.2603,-2.2604,0,0,0,0,0,0,0,0,0,0,0,-2.2408,-2.2409,-2.241,-2.2423,-2.2496,-2.2496,-2.2603,-2.2543,0,0,0,0,0,0,0,0,0,0,-2.247,-2.2466,-2.2409,-2.241,-2.2424,-2.2496,-2.2496,-2.254,-2.2547,-2.2576,0,-2.2605,0,-2.2606,-2.2612,-2.2613,0,0,0,-2.2417,-2.246,-2.2472,-2.241,-2.2425,-2.2496,-2.2461,-2.2543,-2.2551,-2.2585,-2.2606,-2.2609,-2.2608,-2.2613,-2.2614,-2.2805,-2.2806,0,0,-2.2413,-2.2426,-2.2467,-2.2478,-2.2467,-2.2459,-2.2464,-2.2548,-2.2571,-2.2606,-2.2612,-2.261,-2.2614,-2.2615,-2.2804,-2.2805,0,0,0,-2.2406,-2.2423,-2.2433,-2.2474,-2.2486,-2.2461,-2.2466,-2.2568,-2.2569,-2.2613,-2.2611,-2.2614,-2.2616,-2.2803,-2.2804,-2.2877,0,0,0,-2.2403,-2.2419,-2.2431,-2.244,-2.2484,-2.2528,-2.2485,-2.2564,-2.2573,-2.261,-2.2614,-2.2617,-2.2801,-2.2803,-2.2872,-2.2911,0,0,0,-2.2401,-2.2419,-2.2432,-2.2441,-2.2472,-2.2526,-2.2532,-2.2565,-2.2572,-2.2613,-2.2617,-2.28,-2.2803,-2.2868,-2.2903,-2.2967,0,0,0,-2.2402,-2.2495,-2.2433,-2.2537,-2.2472,-2.2569,-2.2532,-2.2604,-2.2647,-2.2615,-2.2801,-2.2804,-2.2867,-2.2899,-2.2962,-2.3024,-2.305,0,0,-2.2527,-2.2511,-2.257,-2.2517,-2.263,-2.2557,-2.268,-2.2707,-2.2699,-2.277,-2.2775,-2.2874,-2.2903,-2.2966,-2.3188,-2.3209,0,0,0,-2.2615,-2.2658,-2.2685,-2.2727,-2.2749,-2.2772,-2.2779,-2.2789,-2.2849,-2.2738,-2.2912,-2.2929,-2.2965,-2.2994,-2.3012,-2.3043,-2.2817,-2.2817,-2.2817,-2.2813,-2.2797,-2.2895,-2.2887,-2.2928,-2.2934,-2.2966,-2.298,-2.2952,-2.2993,-2.3015,-2.3152,-2.3187,-2.32,-2.3233,-2.3044,-2.3044,-2.3045,-2.3045,-2.2997,-2.3057,-2.3016,-2.3097,-2.3079,-2.3147,-2.3155,-2.3133,-2.3194,-2.3134,-2.3165,-2.3105,-2.3224,-2.3252,-2.305,-2.3049,-2.3048,-2.3048,-2.3048,-2.3128,-2.3154,-2.3164,-2.3223,-2.3269,-2.3257,-2.3318,-2.3299,-2.3281,-2.3311,-2.3334,-2.3333,-2.3332,-2.3323,-2.3323,-2.3324,-2.3324,-2.3324,-2.3325,-2.3262,-2.327,-2.3323,-2.3354,-2.3379,-2.3408,-2.3413,-2.3437,-2.3458,-2.3439,-2.3439,-2.3409,-2.3237,-2.3196,-2.3332,-2.3331,-2.333,-2.3329,-2.3329,-2.3461,-2.3412,-2.3495,-2.3519,-2.3554,-2.3603,-2.3575,-2.3625,-2.3641,-2.3672,-2.3633,-2.3508,-2.3491,-2.3476,-2.3443,-2.3634,-2.3634,-2.3634,-2.3634,-2.3574,-2.3561,-2.3642,-2.3682,-2.3719,-2.3703,-2.3798,-2.3802,-2.3799,-2.3808,-2.3777,-2.3729,-2.3715,-2.3706,-2.3687,-2.3655,-2.3897,-2.3897,-2.3897,-2.3696,-2.3687,-2.3772,-2.3767,-2.3793,-2.3815,-2.3904,-2.3952,-2.3938,-2.3907,-2.3816,-2.3805,-2.3727,-2.3703,-2.3674,-2.3645,-2.3586,0,0]},{"header":{"parameterUnit":"m.s-1","parameterCategory":1,"la1":30.2992,"la2":30.254,"lo1":-89.0895,"lo2":-89.0443,"dy":0.0025,"dx":0.0025,"nx":19,"ny":19,"refTime":"2026-03-23T09:00:00:Z","depth":0,"parameterNumber":3,"parameterNumberName":"V-component_of_WINDS"},"data":[0,0,0,-3.1706,-3.1707,-3.1762,-3.1762,-3.1834,-3.1835,0,0,0,0,0,0,0,0,0,0,0,-3.1694,-3.1694,-3.1706,-3.1708,-3.1762,-3.1762,-3.1834,-3.1835,0,0,0,0,0,0,0,0,0,0,0,-3.1693,-3.1694,-3.1695,-3.1708,-3.1762,-3.1762,-3.1834,-3.1791,0,0,0,0,0,0,0,0,0,0,-3.1738,-3.173,-3.1694,-3.1695,-3.1708,-3.1762,-3.1762,-3.1789,-3.1794,-3.1811,0,-3.1829,0,-3.1833,-3.184,-3.184,0,0,0,-3.1704,-3.1726,-3.1738,-3.1695,-3.1709,-3.1762,-3.1736,-3.1792,-3.1797,-3.1818,-3.183,-3.1833,-3.1835,-3.184,-3.1841,-3.1956,-3.1956,0,0,-3.1701,-3.1705,-3.1735,-3.1742,-3.1736,-3.1735,-3.1738,-3.1795,-3.1808,-3.183,-3.1834,-3.1836,-3.1841,-3.1842,-3.1955,-3.1956,0,0,0,-3.1695,-3.1703,-3.1713,-3.1739,-3.1749,-3.1736,-3.174,-3.1806,-3.1809,-3.1835,-3.1837,-3.1841,-3.1842,-3.1954,-3.1955,-3.1994,0,0,0,-3.1693,-3.1699,-3.1712,-3.1714,-3.1748,-3.1778,-3.175,-3.1805,-3.1811,-3.1836,-3.1841,-3.1843,-3.1954,-3.1955,-3.1991,-3.2012,0,0,0,-3.1689,-3.1698,-3.1708,-3.1715,-3.1738,-3.1777,-3.1784,-3.1806,-3.1812,-3.184,-3.1843,-3.1953,-3.1955,-3.1989,-3.2008,-3.2044,0,0,0,-3.1685,-3.174,-3.1709,-3.177,-3.1738,-3.1801,-3.1783,-3.183,-3.1858,-3.1842,-3.1954,-3.1955,-3.1988,-3.2005,-3.2041,-3.2075,-3.209,0,0,-3.1756,-3.1749,-3.1785,-3.1758,-3.1829,-3.1793,-3.1868,-3.189,-3.1888,-3.1933,-3.1935,-3.1992,-3.2007,-3.2043,-3.2168,-3.218,0,0,0,-3.1809,-3.1835,-3.1853,-3.1881,-3.1901,-3.1918,-3.1929,-3.1937,-3.1975,-3.1912,-3.2015,-3.2023,-3.2044,-3.206,-3.207,-3.2088,-3.1963,-3.1963,-3.1962,-3.1914,-3.1911,-3.1971,-3.1974,-3.2002,-3.2013,-3.2034,-3.2046,-3.2033,-3.2058,-3.2071,-3.2148,-3.2167,-3.2174,-3.2193,-3.2088,-3.2088,-3.2088,-3.2088,-3.2019,-3.2056,-3.2039,-3.2091,-3.2087,-3.2129,-3.2141,-3.2131,-3.2169,-3.2137,-3.2155,-3.2121,-3.2187,-3.2203,-3.2091,-3.2091,-3.209,-3.209,-3.209,-3.2088,-3.2106,-3.2116,-3.2157,-3.2189,-3.219,-3.2228,-3.2222,-3.2216,-3.2234,-3.2248,-3.2247,-3.2246,-3.2241,-3.2241,-3.2241,-3.2242,-3.2242,-3.2242,-3.2157,-3.2167,-3.2201,-3.2227,-3.2245,-3.2268,-3.2279,-3.2295,-3.2312,-3.2304,-3.2304,-3.2289,-3.2194,-3.2171,-3.2246,-3.2245,-3.2245,-3.2244,-3.2244,-3.2265,-3.224,-3.2293,-3.2311,-3.2341,-3.2373,-3.2365,-3.24,-3.2412,-3.2432,-3.2412,-3.2343,-3.2334,-3.2326,-3.2307,-3.2413,-3.2413,-3.2413,-3.2413,-3.2324,-3.232,-3.2373,-3.2403,-3.243,-3.2429,-3.2488,-3.2497,-3.2501,-3.2509,-3.2492,-3.2466,-3.2458,-3.2454,-3.2443,-3.2425,-3.2559,-3.2559,-3.2559,-3.2391,-3.2389,-3.2441,-3.2448,-3.2471,-3.249,-3.2546,-3.2579,-3.2578,-3.2565,-3.2515,-3.2508,-3.2466,-3.2452,-3.2437,-3.2421,-3.2388,0,0]}]]